ANZ2220 YSSY-NZAA

Flight info

Callsign ANZ2220
Flight time N/A
Altitude 41000
Route EVONN L521 LUNBI
Aircraft B789/H-SDE1E2E3FGHIJ2J3J4J5M1RWXY/LB1D1

Departure

Time 2026-04-30 22:49
Airport Sydney Kingsford Smith International Airport (YSSY)

Arrival

Time N/A
Airport Auckland International Airport (NZAA)
Time Latitude Longitude Altitude Speed Heading
2026-04-30 22:30 -33.94019 151.16539 35 ft 0 kts 345°
2026-04-30 22:35 -33.94026 151.16541 35 ft 4 kts 345°
2026-04-30 22:36 -33.94121 151.16561 35 ft 4 kts 29°
2026-04-30 22:36 -33.94129 151.16549 35 ft 4 kts 74°
2026-04-30 22:37 -33.94138 151.16514 35 ft 0 kts 74°
2026-04-30 22:39 -33.94129 151.16550 35 ft 4 kts 74°
2026-04-30 22:40 -33.94097 151.16687 35 ft 8 kts 74°
2026-04-30 22:41 -33.94039 151.16938 34 ft 14 kts 73°
2026-04-30 22:41 -33.93984 151.17181 35 ft 12 kts 90°
2026-04-30 22:42 -33.94271 151.17302 33 ft 13 kts 168°
2026-04-30 22:43 -33.94492 151.17360 36 ft 20 kts 168°
2026-04-30 22:43 -33.94776 151.17433 35 ft 21 kts 168°
2026-04-30 22:44 -33.95076 151.17512 34 ft 22 kts 166°
2026-04-30 22:45 -33.95687 151.17670 36 ft 23 kts 168°
2026-04-30 22:45 -33.95761 151.17689 36 ft 23 kts 168°
2026-04-30 22:46 -33.95783 151.17695 36 ft 23 kts 168°
2026-04-30 22:47 -33.96311 151.17831 35 ft 24 kts 167°
2026-04-30 22:47 -33.96421 151.18009 35 ft 14 kts 78°
2026-04-30 22:48 -33.96334 151.18041 35 ft 19 kts 348°
2026-04-30 22:49 -33.94113 151.17462 209 ft 182 kts 349°
2026-04-30 22:49 -33.89793 151.16341 2144 ft 241 kts 349°
2026-04-30 22:50 -33.82820 151.14525 6016 ft 265 kts 349°
2026-04-30 22:51 -33.79149 151.13571 7884 ft 275 kts 349°
2026-04-30 22:51 -33.75344 151.12584 9658 ft 284 kts 349°
2026-04-30 22:52 -33.73409 151.12084 10363 ft 297 kts 349°
2026-04-30 22:52 -33.68994 151.10937 10806 ft 352 kts 348°
2026-04-30 22:53 -33.64105 151.09670 12425 ft 361 kts 348°
2026-04-30 22:53 -33.59124 151.08380 13955 ft 371 kts 348°
2026-04-30 22:53 -33.56624 151.07733 14672 ft 376 kts 348°
2026-04-30 22:54 -33.51451 151.06400 16082 ft 384 kts 348°
2026-04-30 22:55 -33.43485 151.04345 18024 ft 397 kts 348°
2026-04-30 22:55 -33.38031 151.02940 19202 ft 404 kts 348°
2026-04-30 22:56 -33.32491 151.01515 20354 ft 410 kts 348°
2026-04-30 22:56 -33.24010 150.99338 21892 ft 420 kts 348°
2026-04-30 22:57 -33.18251 150.97863 22837 ft 426 kts 348°
2026-04-30 22:57 -33.12417 150.96369 23718 ft 431 kts 349°
2026-04-30 22:58 -33.06506 150.94859 24524 ft 437 kts 349°
2026-04-30 22:59 -32.98530 150.92823 25505 ft 444 kts 349°
2026-04-30 22:59 -32.89392 150.90496 26567 ft 451 kts 349°